Hourly Data Report for October 20, 2014

All times are specified in Local Standard Time (LST). Add 1 hour to adjust for Daylight Saving Time where and when it is observed.

Metadata including Station Name, Province, Latitude, Longitude, Elevation, Climate ID, WMO ID, TC ID
GRANBY
QUEBEC
Latitude: 45°22'22.000" N Longitude: 72°46'26.000" W Elevation: 86.00 m
Climate ID: 7022802 WMO ID: TC ID: MGB
Hourly Data Report for October 19, 2014
Temp Definition
°C

Dew Point Temp Definition
°C

Rel Hum Definition
%

Wind Dir Definition
10's deg
Wind Spd Definition
km/h

Visibility Definition
km

Stn Press Definition
kPa

Hmdx Definition

Wind Chill Definition

Weather Definition

00:00 5.6 4.1 90 29 8 99.56 LegendNANA
01:00 5.9 2.4 79 31 10 99.65 LegendNANA
02:00 5.1 1.6 78 32 9 99.67 LegendNANA
03:00 3.9 1.0 81 31 8 99.74 LegendNANA
04:00 3.8 0.6 80 31 7 99.79 LegendNANA
05:00 3.6 0.9 83 29 5 99.86 LegendNANA
06:00 3.6 0.5 80 30 4 99.94 LegendNANA
07:00 3.8 0.0 77 31 5 100.02 LegendNANA
08:00 4.3 0.6 77 30 6 100.09 LegendNANA
09:00 5.5 0.0 67 31 14 100.10 LegendNANA
10:00 6.4 -0.2 63 32 10 100.09 LegendNANA
11:00 6.8 -0.6 59 31 10 100.11 LegendNANA
12:00 6.6 -1.2 57 31 12 100.07 LegendNANA
13:00 6.0 -0.9 61 29 11 100.07 LegendNANA
14:00 6.4 -1.9 55 28 10 100.07 LegendNANA
15:00 6.2 -3.0 52 29 15 100.08 LegendNANA
16:00 6.2 -2.4 54 28 10 100.13 LegendNANA
17:00 5.7 -2.3 56 29 11 100.21 LegendNANA
18:00 5.1 -1.1 64 24 6 100.26 LegendNANA
19:00 5.1 -0.8 65 25 7 100.28 LegendNANA
20:00 5.1 -2.7 57 30 7 100.32 LegendNANA
21:00 4.4 -3.0 58 30 6 100.34 LegendNANA
22:00 3.7 -4.0 57 31 10 100.34 LegendNANA
23:00 2.8 -3.8 62 30 8 100.35 LegendNANA

Notes on Data Quality.

Legend
  • E = Estimated
  • M = Missing
  • NA = Not Available
  • ‡ = Partner data that is not subject to review by the National Climate Archives